VOE9BK LEBB-LPPR

Flight info

Callsign VOE9BK
Flight time 0h 56m
Altitude 31000
Route AMTOS DCT NEA DCT ZMR DCT ADORO DCT INKIT
Aircraft A320/M-SDE3FGHIRWY/LB1

Departure

Time 2026-05-01 12:48
Airport Bilbao Airport (LEBB)

Arrival

Time 2026-05-01 13:45
Airport Francisco de Sá Carneiro Airport (LPPR)
Time Latitude Longitude Altitude Speed Heading
2026-05-01 12:25 43.30467 -2.90740 166 ft 0 kts 26°
2026-05-01 12:39 43.30456 -2.90747 166 ft 2 kts 26°
2026-05-01 12:40 43.30442 -2.90756 166 ft 2 kts 26°
2026-05-01 12:40 43.30429 -2.90766 165 ft 2 kts 26°
2026-05-01 12:40 43.30415 -2.90775 164 ft 2 kts 26°
2026-05-01 12:40 43.30408 -2.90780 163 ft 1 kts 12°
2026-05-01 12:41 43.30397 -2.90777 163 ft 1 kts 311°
2026-05-01 12:41 43.30394 -2.90770 163 ft 1 kts 287°
2026-05-01 12:41 43.30392 -2.90764 164 ft 0 kts 296°
2026-05-01 12:43 43.30402 -2.90791 163 ft 6 kts 294°
2026-05-01 12:43 43.30405 -2.90884 161 ft 10 kts 266°
2026-05-01 12:44 43.30393 -2.90976 160 ft 11 kts 229°
2026-05-01 12:44 43.30326 -2.91026 156 ft 9 kts 207°
2026-05-01 12:44 43.30368 -2.91259 158 ft 17 kts 297°
2026-05-01 12:45 43.30496 -2.91608 165 ft 23 kts 297°
2026-05-01 12:45 43.30577 -2.91824 166 ft 27 kts 297°
2026-05-01 12:45 43.30656 -2.92042 158 ft 18 kts 296°
2026-05-01 12:46 43.30719 -2.92214 145 ft 24 kts 297°
2026-05-01 12:46 43.30780 -2.92381 132 ft 14 kts 297°
2026-05-01 12:46 43.30792 -2.92496 122 ft 16 kts 223°
2026-05-01 12:46 43.30688 -2.92478 124 ft 14 kts 161°
2026-05-01 12:47 43.30608 -2.92410 128 ft 11 kts 128°
2026-05-01 12:47 43.30571 -2.92323 133 ft 12 kts 116°
2026-05-01 12:47 43.30463 -2.92027 143 ft 67 kts 116°
2026-05-01 12:47 43.30150 -2.91173 143 ft 131 kts 116°
2026-05-01 12:48 43.29669 -2.89871 343 ft 162 kts 116°
2026-05-01 12:48 43.29165 -2.88521 954 ft 162 kts 116°
2026-05-01 12:48 43.28657 -2.87147 1602 ft 164 kts 116°
2026-05-01 12:48 43.28148 -2.85761 2138 ft 169 kts 116°
2026-05-01 12:49 43.27592 -2.84251 2480 ft 185 kts 117°
2026-05-01 12:49 43.26980 -2.82590 2774 ft 206 kts 117°
2026-05-01 12:49 43.26308 -2.80769 3146 ft 225 kts 117°
2026-05-01 12:49 43.25577 -2.78785 3570 ft 243 kts 117°
2026-05-01 12:50 43.24787 -2.76640 4062 ft 258 kts 117°
2026-05-01 12:50 43.23849 -2.74552 4765 ft 262 kts 135°
2026-05-01 12:50 43.22298 -2.73381 5517 ft 264 kts 169°
2026-05-01 12:50 43.20462 -2.73565 6333 ft 267 kts 195°
2026-05-01 12:51 43.18770 -2.74570 7136 ft 270 kts 209°
2026-05-01 12:51 43.17256 -2.76041 7939 ft 274 kts 219°
2026-05-01 12:51 43.14747 -2.80002 9552 ft 280 kts 236°
2026-05-01 12:52 43.13801 -2.82288 10336 ft 282 kts 242°
2026-05-01 12:52 43.12046 -2.87378 11242 ft 312 kts 243°
2026-05-01 12:52 43.11109 -2.90132 11554 ft 329 kts 243°
2026-05-01 12:53 43.09119 -2.95921 12736 ft 342 kts 243°
2026-05-01 12:53 43.08103 -2.98856 13414 ft 345 kts 244°
2026-05-01 12:53 43.07074 -3.01823 14067 ft 348 kts 244°
2026-05-01 12:54 43.06043 -3.04789 14706 ft 352 kts 244°
2026-05-01 12:54 43.03931 -3.10853 15961 ft 357 kts 243°
2026-05-01 12:54 43.02863 -3.13911 16563 ft 360 kts 243°
2026-05-01 12:55 43.00582 -3.20040 17707 ft 365 kts 235°
2026-05-01 12:55 42.98983 -3.22702 18256 ft 367 kts 224°
2026-05-01 12:55 42.97016 -3.24925 18786 ft 369 kts 216°
2026-05-01 12:56 42.94893 -3.26925 19306 ft 372 kts 214°
2026-05-01 12:56 42.92763 -3.28891 19781 ft 375 kts 214°
2026-05-01 12:56 42.90578 -3.30902 20263 ft 378 kts 214°
2026-05-01 12:56 42.88397 -3.32912 20739 ft 381 kts 214°
2026-05-01 12:57 42.86202 -3.34938 21218 ft 384 kts 214°
2026-05-01 12:57 42.81781 -3.39020 22113 ft 390 kts 214°
2026-05-01 12:57 42.79538 -3.41092 22566 ft 392 kts 214°
2026-05-01 12:58 42.77274 -3.43180 23005 ft 395 kts 214°
2026-05-01 12:58 42.74976 -3.45298 23433 ft 398 kts 214°
2026-05-01 12:58 42.72693 -3.47402 23862 ft 400 kts 214°
2026-05-01 12:59 42.68092 -3.51633 24659 ft 405 kts 214°
2026-05-01 12:59 42.65747 -3.53787 25031 ft 408 kts 214°
2026-05-01 12:59 42.61031 -3.58113 25755 ft 412 kts 215°
2026-05-01 13:00 42.56259 -3.62484 26457 ft 416 kts 215°
2026-05-01 13:00 42.53880 -3.64660 26766 ft 419 kts 215°
2026-05-01 13:01 42.49023 -3.69096 27426 ft 422 kts 214°
2026-05-01 13:01 42.46575 -3.71330 27739 ft 424 kts 214°
2026-05-01 13:01 42.41683 -3.75785 28313 ft 429 kts 214°
2026-05-01 13:02 42.39192 -3.78050 28590 ft 431 kts 215°
2026-05-01 13:07 41.94519 -4.36825 31133 ft 442 kts 247°
2026-05-01 13:07 41.93309 -4.40634 31129 ft 441 kts 247°
2026-05-01 13:08 41.90904 -4.48170 31126 ft 442 kts 247°
2026-05-01 13:08 41.88484 -4.55721 31124 ft 441 kts 247°
2026-05-01 13:09 41.86070 -4.63231 31125 ft 441 kts 247°
2026-05-01 13:09 41.83642 -4.70760 31130 ft 440 kts 246°
2026-05-01 13:10 41.81211 -4.78281 31130 ft 439 kts 246°
2026-05-01 13:10 41.78786 -4.85759 31134 ft 438 kts 246°
2026-05-01 13:11 41.76378 -4.93168 31135 ft 438 kts 246°
2026-05-01 13:11 41.73535 -5.01887 31130 ft 437 kts 246°
2026-05-01 13:12 41.71510 -5.08078 31123 ft 437 kts 246°
2026-05-01 13:12 41.69073 -5.15511 31120 ft 437 kts 246°
2026-05-01 13:13 41.66647 -5.22891 31113 ft 437 kts 246°
2026-05-01 13:13 41.64198 -5.30323 31110 ft 436 kts 246°
2026-05-01 13:14 41.61759 -5.37702 31107 ft 436 kts 246°
2026-05-01 13:14 41.59316 -5.45075 31105 ft 435 kts 246°
2026-05-01 13:15 41.56873 -5.52423 31106 ft 434 kts 246°
2026-05-01 13:15 41.54635 -5.59888 31103 ft 434 kts 251°
2026-05-01 13:16 41.53059 -5.67633 31106 ft 435 kts 257°
2026-05-01 13:16 41.52179 -5.75599 31109 ft 435 kts 262°
2026-05-01 13:17 41.51021 -5.91613 31110 ft 436 kts 263°
2026-05-01 13:18 41.50141 -6.03613 31113 ft 435 kts 262°
2026-05-01 13:18 41.49548 -6.11604 31112 ft 435 kts 262°
2026-05-01 13:19 41.48946 -6.19596 31108 ft 435 kts 262°
2026-05-01 13:20 41.47660 -6.31479 31110 ft 432 kts 256°
2026-05-01 13:20 41.46273 -6.39262 31115 ft 431 kts 255°
2026-05-01 13:21 41.44163 -6.50868 31114 ft 431 kts 255°
2026-05-01 13:21 41.42751 -6.58591 31115 ft 431 kts 255°
2026-05-01 13:22 41.41328 -6.66342 31119 ft 430 kts 255°
2026-05-01 13:22 41.39912 -6.74033 31114 ft 430 kts 255°
2026-05-01 13:23 41.39198 -6.77893 30929 ft 430 kts 255°
2026-05-01 13:23 41.38482 -6.81758 30445 ft 429 kts 255°
2026-05-01 13:23 41.37765 -6.85620 29695 ft 428 kts 255°
2026-05-01 13:23 41.37059 -6.89422 29035 ft 424 kts 255°
2026-05-01 13:24 41.36365 -6.93150 28544 ft 417 kts 255°
2026-05-01 13:24 41.35668 -6.96887 28026 ft 410 kts 254°
2026-05-01 13:24 41.34996 -7.00482 27528 ft 404 kts 254°
2026-05-01 13:25 41.33659 -7.07623 26515 ft 393 kts 254°
2026-05-01 13:25 41.32996 -7.11142 26003 ft 388 kts 254°
2026-05-01 13:25 41.32350 -7.14579 25498 ft 384 kts 254°
2026-05-01 13:25 41.31706 -7.17992 24993 ft 380 kts 254°
2026-05-01 13:26 41.31063 -7.21388 24488 ft 376 kts 254°
2026-05-01 13:26 41.30431 -7.24724 23993 ft 373 kts 254°
2026-05-01 13:26 41.29808 -7.28008 23509 ft 369 kts 254°
2026-05-01 13:26 41.29184 -7.31290 23025 ft 366 kts 254°
2026-05-01 13:27 41.28562 -7.34558 22528 ft 364 kts 254°
2026-05-01 13:27 41.27940 -7.37816 22027 ft 361 kts 254°
2026-05-01 13:27 41.26719 -7.44205 21021 ft 358 kts 254°
2026-05-01 13:28 41.25498 -7.50575 20017 ft 355 kts 253°
2026-05-01 13:28 41.24887 -7.53754 19517 ft 354 kts 253°
2026-05-01 13:29 41.23677 -7.60030 18519 ft 351 kts 254°
2026-05-01 13:29 41.22475 -7.66244 17497 ft 349 kts 253°
2026-05-01 13:30 41.20076 -7.78601 15495 ft 345 kts 253°
2026-05-01 13:31 41.18873 -7.84756 14496 ft 344 kts 253°
2026-05-01 13:31 41.16478 -7.93567 13050 ft 337 kts 243°
2026-05-01 13:32 41.14527 -7.99192 12086 ft 334 kts 243°
2026-05-01 13:33 41.11645 -8.07477 10733 ft 324 kts 243°
2026-05-01 13:33 41.09832 -8.12690 10417 ft 298 kts 243°
2026-05-01 13:34 41.08165 -8.17466 10131 ft 275 kts 243°
2026-05-01 13:34 41.06587 -8.21970 9477 ft 269 kts 243°
2026-05-01 13:35 41.05021 -8.26431 8778 ft 266 kts 243°
2026-05-01 13:35 41.04243 -8.28649 8444 ft 266 kts 243°
2026-05-01 13:35 41.02843 -8.33065 8100 ft 251 kts 251°
2026-05-01 13:36 41.02411 -8.35295 7759 ft 253 kts 255°
2026-05-01 13:36 41.02042 -8.37568 7394 ft 253 kts 256°
2026-05-01 13:36 41.01335 -8.42021 7016 ft 240 kts 256°
2026-05-01 13:37 41.00991 -8.44167 6765 ft 236 kts 256°
2026-05-01 13:37 41.00649 -8.46281 6519 ft 232 kts 256°
2026-05-01 13:37 41.00314 -8.48352 6275 ft 229 kts 257°
2026-05-01 13:37 41.00001 -8.50410 6031 ft 225 kts 257°
2026-05-01 13:38 40.99414 -8.54404 5561 ft 217 kts 257°
2026-05-01 13:38 40.99126 -8.56346 5332 ft 214 kts 257°
2026-05-01 13:38 40.98871 -8.58271 5096 ft 211 kts 266°
2026-05-01 13:39 40.99175 -8.60148 4822 ft 213 kts 300°
2026-05-01 13:39 41.00172 -8.61536 4548 ft 213 kts 330°
2026-05-01 13:39 41.01567 -8.62162 4273 ft 212 kts 349°
2026-05-01 13:39 41.03025 -8.62514 4012 ft 211 kts 350°
2026-05-01 13:40 41.04459 -8.62854 3742 ft 210 kts 349°
2026-05-01 13:40 41.05880 -8.63207 3508 ft 207 kts 349°
2026-05-01 13:40 41.07269 -8.63561 3296 ft 199 kts 349°
2026-05-01 13:40 41.08619 -8.63907 3069 ft 193 kts 349°
2026-05-01 13:41 41.09908 -8.64240 2846 ft 187 kts 349°
2026-05-01 13:41 41.11149 -8.64562 2584 ft 177 kts 349°
2026-05-01 13:41 41.12329 -8.64869 2367 ft 163 kts 349°
2026-05-01 13:41 41.13397 -8.65147 2136 ft 150 kts 348°
2026-05-01 13:42 41.14390 -8.65405 1939 ft 145 kts 347°
2026-05-01 13:42 41.15386 -8.65666 1762 ft 145 kts 347°
2026-05-01 13:42 41.16374 -8.65925 1576 ft 144 kts 347°
2026-05-01 13:42 41.17349 -8.66180 1387 ft 142 kts 347°
2026-05-01 13:43 41.18318 -8.66435 1201 ft 142 kts 347°
2026-05-01 13:43 41.19303 -8.66693 1010 ft 143 kts 347°
2026-05-01 13:43 41.20267 -8.66945 826 ft 140 kts 347°
2026-05-01 13:43 41.21225 -8.67196 639 ft 139 kts 347°
2026-05-01 13:44 41.22172 -8.67438 448 ft 138 kts 348°
2026-05-01 13:44 41.23122 -8.67678 297 ft 137 kts 346°
2026-05-01 13:44 41.24052 -8.67921 215 ft 131 kts 350°
2026-05-01 13:44 41.24849 -8.68139 189 ft 94 kts 349°
2026-05-01 13:45 41.25321 -8.68261 173 ft 46 kts 348°
2026-05-01 13:45 41.25549 -8.68318 167 ft 16 kts
2026-05-01 13:45 41.25605 -8.68205 165 ft 16 kts 79°
2026-05-01 13:45 41.25567 -8.68095 169 ft 13 kts 163°
2026-05-01 13:46 41.25483 -8.68073 173 ft 11 kts 168°
2026-05-01 13:46 41.25395 -8.68050 176 ft 13 kts 168°
2026-05-01 13:46 41.25294 -8.68023 179 ft 16 kts 168°
2026-05-01 13:46 41.25176 -8.67992 182 ft 18 kts 168°
2026-05-01 13:47 41.25050 -8.67959 188 ft 18 kts 168°
2026-05-01 13:47 41.24920 -8.67925 193 ft 19 kts 169°
2026-05-01 13:47 41.24793 -8.67847 198 ft 20 kts 151°
2026-05-01 13:47 41.24600 -8.67786 205 ft 22 kts 169°
2026-05-01 13:48 41.24499 -8.67760 208 ft 22 kts 169°
2026-05-01 13:48 41.24350 -8.67722 211 ft 21 kts 168°
2026-05-01 13:48 41.24255 -8.67623 217 ft 14 kts 126°
2026-05-01 13:48 41.24171 -8.67567 220 ft 14 kts 169°
2026-05-01 13:49 41.24077 -8.67543 222 ft 12 kts 168°
2026-05-01 13:49 41.24017 -8.67528 222 ft 6 kts 175°
2026-05-01 13:49 41.23995 -8.67583 219 ft 5 kts 257°
2026-05-01 13:49 41.23989 -8.67619 217 ft 1 kts 258°
2026-05-01 13:50 41.23989 -8.67620 217 ft 0 kts 258°